Location: Franzen
(48.6167°N, 15.3833°E)
Time: 09:42:06
(UTC+00:00)

SeaSat 1 - Pass Details

Date: 22 April 2021
Orbit: 744 x 747 km, 108.0° (Epoch: 16 May)

Event Time Altitude Azimuth Distance (km) Brightness Sun altitude
Rises 21:45:07 0° 31° (NNE) 3,203 6.3 -26.8°
Reaches altitude 10° 21:47:25 10° 34° (NE) 2,275 5.4 -27.0°
Enters shadow 21:51:18 51° 62° (ENE) 934 2.9 -27.2°
